Retour au catalogue

CZ-6A DEB

ActifPO
NORAD 54307·DEBRIS·🇨🇳 China

Lancé Nov 11, 2022 depuis Taiyuan Satellite Launch Center

Loading…

Prochains Passages (prochaines 24 heures)

TLE

FraisSource: Space-Track

Époque: Sep 14, 2026, 10:57 UTC

1 54307U 22151BA  26257.45671897  .00056069  00000-0  28733-2 0  9990
2 54307  98.5525 338.1593 0028017 294.2799  65.5505 15.16019831133050

Suivez CZ-6A DEB en temps réel avec AllMySat

Download on the App Store